Location: El Gato
(34.6223°N, 106.2997°W)
Time: 04:19:48
(UTC+00:00)

Daily predictions for brighter satellites

Satellite Brightness Start Highest point End
(mag) Time Altitude Azimuth Time Altitude Azimuth Time Altitude Azimuth
DELTA 2 R/B (1) 3.7 01:17:22 10° WNW 01:22:53 68° NNE 01:28:25 10° E
IRS-1C Rocket 4.1 01:17:52 10° SSE 01:23:06 88° E 01:28:23 10° NNW
Okean-O 2.7 01:22:39 10° SSE 01:26:59 57° ENE 01:31:20 10° N
ARGOS 4.5 01:24:12 10° ESE 01:27:54 19° ENE 01:31:38 10° NNE
YAOGAN 1 3.0 01:24:26 10° SE 01:28:28 40° ENE 01:32:32 10° N
Cosmos 1437 3.2 01:30:45 10° N 01:33:31 34° E 01:36:16 10° SSE
CZ-2C R/B 3.6 01:30:48 10° SE 01:35:36 40° ENE 01:40:40 10° N
CZ-2C R/B 4.0 01:33:30 10° NE 01:37:08 18° E 01:40:46 10° SE
GP-B 3.7 01:36:49 10° N 01:41:12 64° W 01:45:34 10° SSW
MOS 1 Rocket 3.6 01:40:39 10° NNE 01:44:41 36° E 01:48:37 10° SSE
Cosmos 372 Rocket 4.0 01:39:33 10° S 01:44:42 60° ESE 01:49:51 10° NNE
NOSS 2-2 (C) 4.1 01:42:31 10° SW 01:45:57 48° WNW 01:49:28 10° NNE
Cosmos 2263 Rocket 3.6 01:42:48 10° SW 01:48:01 41° WNW 01:53:17 10° N
Cosmos 1782 Rocket 3.9 01:44:13 10° SSW 01:48:35 73° W 01:53:01 10° N
Cosmos 1025 Rocket 4.4 01:45:58 10° NNE 01:49:15 20° ENE 01:51:49 13° ESE
Cosmos 1844 4.5 01:44:54 10° SSE 01:49:42 29° ESE 01:54:30 10° NE
ISS -1.4 01:47:57 10° W 01:50:42 23° NW 01:53:28 10° NNE
Cosmos 1464 Rocket 4.1 01:46:15 10° SSE 01:52:05 48° E 01:57:57 10° NNE
CZ-2D R/B 3.9 01:49:09 10° S 01:52:59 61° W 01:56:51 10° NNW
Cosmos 1844 Rocket 3.0 01:49:05 10° S 01:54:12 40° ESE 01:59:22 10° NE
Cosmos 2151 Rocket 4.3 01:53:43 10° SSE 01:57:38 32° E 02:01:37 10° NNE
Cosmos 1867 4.1 01:52:45 10° NNW 01:57:51 39° NE 02:01:45 16° ESE
Cosmos 2084 Rocket 3.5 01:54:57 10° NNW 01:59:27 87° NE 02:04:00 10° SSE
SJ-11-01 4.3 01:57:09 10° SSE 02:01:46 57° ENE 02:06:22 10° N
Cosmos 2150 Rocket 4.1 01:59:42 10° S 02:04:54 56° ESE 02:10:12 10° NNE
CZ-2C R/B 0.8 02:01:32 10° W 02:05:13 83° N 02:07:04 26° E
Cosmos 1125 Rocket 3.9 02:04:13 10° SSE 02:09:04 38° E 02:13:58 10° NE
Milstar 3 Cent rocket 3.3 02:04:28 10° SW 02:11:28 33° S 02:14:14 21° ESE
Longmarch 3A Rocket 2.9 02:10:40 10° SW 02:12:27 21° SSE 02:12:56 20° SE
USA 234 3.6 02:07:04 10° ENE 02:13:13 43° SE 02:19:21 10° SSW
Cosmos 1943 3.4 02:07:49 10° NNW 02:13:27 74° WSW 02:19:06 10° SSE
CSL-04 Debris 4.2 02:11:29 10° SSE 02:16:53 85° WSW 02:22:17 10° NNW
Shenzhou-11 Module 3.6 02:15:33 10° SSW 02:16:04 14° SSW 02:16:04 14° SSW
Cosmos 1975 Rocket 3.5 02:13:51 10° NNW 02:18:07 62° W 02:22:22 10° S
Cosmos 1891 Rocket 4.4 02:13:01 10° S 02:19:12 89° E 02:25:17 10° N
BREEZE-M DEB (TANK) 3.7 02:18:11 10° NNW 02:19:17 17° NNE 02:19:17 17° NNE
CSL-04 Rocket 3.8 02:18:11 10° S 02:23:34 78° WSW 02:29:04 10° NNW
NOSS 3-4 (A) 3.8 02:20:34 10° S 02:25:49 36° ESE 02:30:10 15° NE
NOSS 3-4 (C) 3.8 02:20:42 10° S 02:25:57 35° ESE 02:29:46 17° ENE
HJ-1C 4.0 02:26:35 10° S 02:29:48 55° W 02:33:02 10° NNW
Meteor 1-15 Rocket 4.2 02:28:52 10° S 02:34:19 58° E 02:39:54 10° NNE
H-2A R/B 2.7 02:32:27 10° SW 02:33:47 24° S 02:33:47 24° S
Exosat Rocket 3.6 02:30:03 10° S 02:36:12 67° ESE 02:41:14 10° NNE
H-2A R/B 2.3 02:32:39 10° S 02:37:32 66° W 02:42:32 10° NNW
IRS-1A Rocket 4.4 02:38:35 30° SE 02:41:23 57° ENE 02:47:07 10° N
Cosmos 1048 Rocket 4.3 02:37:29 10° N 02:42:39 48° ENE 02:43:26 45° E
CZ-4 R/B 4.4 02:44:53 10° SW 02:47:40 17° W 02:50:27 10° NW
ATLAS 2AS CENTAUR R/B 3.1 02:40:32 10° S 02:48:05 54° ESE 02:55:47 10° NE
Nadezhda 4 Rocket 3.8 02:42:48 10° N 02:48:55 73° E 02:52:33 26° SSE
Cosmos 2034 Rocket 4.1 02:44:10 10° S 02:50:31 78° W 02:56:54 10° N
BREEZE-M DEB (TANK) 3.9 02:47:45 10° NW 02:51:31 51° NE 02:54:11 37° E
Okean 1 Rocket 3.8 02:53:24 40° NNE 02:53:24 40° NNE 02:56:26 10° NNE
Cosmos 1707 4.2 02:51:47 10° NNW 02:55:19 36° W 02:58:23 13° SSW
Ariane Rocket 2.8 02:56:55 54° SSE 02:58:05 82° ENE 03:03:10 10° N
CENTAUR R/B 3.7 02:51:41 10° NNW 02:59:28 43° NE 03:01:27 38° E
GOES 2 Rocket 4.1 02:57:04 10° WSW 03:00:00 32° SSW 03:00:00 32° SSW
ATLAS 3B R/B 4.5 03:03:08 10° N 03:07:04 16° NE 03:07:18 16° NE
SJ-6B 4.2 03:08:52 31° NNW 03:08:52 31° NNW 03:10:56 10° NNW
ARGOS 4.1 03:02:39 10° S 03:07:46 46° W 03:12:55 10° NNW
DELTA 2 R/B (1) 4.1 03:03:59 10° WNW 03:09:14 45° SSW 03:09:53 43° SSW
SL-08 RB Rocket 4.3 03:09:04 38° SSW 03:10:27 54° W 03:14:56 10° NNW
Meteor 2-5 Rocket 4.2 03:05:57 10° N 03:10:22 46° NE 03:10:22 46° NE
ATLAS 5 CENTAUR R/B 4.4 03:08:24 10° NW 03:12:59 47° SW 03:29:18 10° SSE
USA 186 4.3 03:14:50 20° NW 03:14:50 20° NW 03:16:07 10° NNW
USA 238 DEB 3.8 03:08:14 10° NNW 03:15:34 71° ENE 03:16:46 61° ESE
USA 238 3.8 03:08:21 10° NNW 03:15:40 70° ENE 03:16:50 61° ESE
CZ-2C R/B 3.5 03:12:14 10° N 03:17:38 53° WNW 03:23:03 10° SSW
Cosmos 1634 Rocket 3.8 03:21:51 82° E 03:21:51 82° E 03:28:03 10° N
NOSS 3-2 (A) 4.2 03:34:38 10° NW 03:42:32 75° WSW 03:43:55 63° S
CZ-2C R/B 4.3 03:41:23 10° W 03:41:25 10° W 03:41:25 10° W
Cosmos 1092 Rocket 4.4 03:43:45 10° NNW 03:49:45 58° W 03:49:45 58° W
Cosmos 2026 Rocket 4.5 03:48:03 10° N 03:53:11 58° NNW 03:53:11 58° NNW
USA 234 4.0 03:52:10 22° NNE 03:56:11 48° NW 04:02:23 10° WSW
NOSS 3-2 (C) 4.4 04:10:24 10° NW 04:17:16 64° WNW 04:17:16 64° WNW
ATLAS 2AS CENTAUR R/B 4.3 04:32:20 10° WSW 04:39:23 34° NW 04:46:28 10° NNE
CENTAUR R/B 4.1 04:42:21 10° NW 04:48:39 43° W 04:48:39 43° W
ATLAS 3B R/B 4.5 04:51:54 10° NNW 04:54:33 25° NNW 04:54:33 25° NNW
BREEZE-M DEB (TANK) 4.4 09:39:27 64° ENE 09:39:27 64° ENE 09:53:07 10° ENE
Lacrosse 5 4.5 09:45:25 14° NNE 09:45:25 14° NNE 09:46:19 10° NNE
NOSS 3-3 (A) 4.5 10:06:31 51° NE 10:06:31 51° NE 10:11:06 10° NNE
NOSS 3-3 (C) 4.5 10:06:40 50° NE 10:06:40 50° NE 10:11:11 10° NNE
USA 267 4.0 10:04:34 10° NNE 10:09:48 40° NNW 10:09:48 40° NNW
MSX 3.7 10:24:23 10° NNE 10:30:09 84° E 10:30:09 84° E
Timation 1 Rocket 4.3 10:26:03 10° NNW 10:32:05 83° ENE 10:38:05 10° SSE
Cosmos 1980 Rocket 3.5 10:34:34 29° NNW 10:34:34 29° NNW 10:37:48 10° N
Cosmos 2322 Rocket 2.9 10:37:25 34° SSE 10:39:28 51° ESE 10:44:58 10° NNE
USA 234 4.2 10:35:47 10° ESE 10:41:55 45° NE 10:48:03 10° NNW
SL-4 R/B 2.7 10:43:55 61° NE 10:43:55 61° NE 10:47:50 10° NE
Cosmos 2263 Rocket 3.1 10:39:18 10° N 10:44:48 49° ENE 10:50:16 10° SE
SL-16 R/B 2.2 10:47:26 54° S 10:48:46 79° ESE 10:54:27 10° NNE
Meteor 1-4 Rocket 4.3 10:50:46 26° NNE 10:50:46 26° NNE 10:52:25 10° NNE
Cosmos 44 Rocket 4.5 10:51:43 25° SSE 10:53:46 37° ESE 10:58:09 10° NE
ARIANE 5 R/B 4.3 10:51:14 10° NNW 10:53:01 18° NNW 10:53:01 18° NNW
Cosmos 1934 Rocket 4.1 10:51:49 10° NNW 10:57:12 50° WNW 10:57:12 50° WNW
Cosmos 1869 Rocket 3.6 10:54:12 10° N 10:58:32 74° E 11:02:50 10° SSE
CZ-2C R/B 2.6 10:55:47 10° NNE 11:00:57 76° ESE 11:04:21 22° S
Meteor 1-10 Rocket 4.1 10:59:42 43° SSW 11:01:39 74° W 11:07:31 10° N
IDEFIX/ARIANE 42P 3.8 10:57:41 10° N 11:00:51 27° NW 11:00:51 27° NW
Cosmos 1763 Rocket 3.4 11:01:39 48° SSW 11:03:09 83° WNW 11:08:30 10° NNE
Cosmos 2227 4.2 10:58:35 10° NNW 11:04:15 79° ENE 11:09:51 10° SSE
CZ-4B R/B 4.2 11:04:29 10° ESE 11:06:45 19° ENE 11:09:04 10° NNE
IRIDIUM 106 4.2 11:02:03 10° N 11:07:18 90° E 11:12:31 10° S
SJ 16-02 1.3 11:03:37 10° NNW 11:08:02 81° ENE 11:12:25 10° SSE
H-2A R/B 1.9 11:06:37 10° S 11:10:56 78° WSW 11:15:22 10° NNW
PSLV R/B 3.3 11:06:46 10° N 11:10:57 77° WNW 11:11:42 58° SW
Cosmos 967 Rocket 4.4 11:11:37 30° SSW 11:15:03 80° WNW 11:21:30 10° NNE
Cosmos 1238 Rocket 4.3 11:11:25 10° NNW 11:17:14 37° W 11:17:48 36° W
Cosmos 1570 Rocket 4.4 11:12:10 10° S 11:17:22 64° ESE 11:22:40 10° NNE
Meteor 1-5 Rocket 4.0 11:13:08 10° NNW 11:18:26 67° W 11:23:51 10° S
Landsat 5 3.6 11:16:32 10° S 11:20:58 57° W 11:25:25 10° NNW
Cosmos 1153 Rocket 4.4 11:14:45 10° N 11:21:09 86° W 11:27:26 10° S
ERS-2 2.2 11:17:54 10° SSE 11:21:32 75° ENE 11:25:12 10° N
X-37B 3.0 11:23:27 14° NNW 11:24:54 18° NNE 11:27:11 10° ENE
Cosmos 1605 Rocket 4.2 11:18:58 10° NNW 11:25:05 49° W 11:31:11 10° SSW
SL-19 R/B 4.4 11:23:53 10° NNE 11:28:25 87° E 11:31:52 13° SSW
PAYLOAD A 4.1 11:24:19 10° N 11:28:47 46° WNW 11:30:36 30° SW
Cosmos 2333 Rocket 4.4 11:24:56 10° SSE 11:29:35 26° ESE 11:34:17 10° NE
Skynet4D Del rocket 4.5 11:27:38 27° SW 11:29:38 36° S 11:35:03 10° ESE
Cosmos 540 Rocket 3.4 11:24:31 10° SSW 11:29:41 86° ESE 11:34:52 10° NNE
BREEZE M DEB (TANK) 3.5 11:20:28 10° NW 11:31:21 68° NNE 11:34:52 10° ESE
Cosmos 990 Rocket 3.9 11:26:44 10° NNW 11:31:57 87° WSW 11:37:10 10° SSE
Cosmos 1000 Rocket 4.5 11:27:04 10° S 11:33:17 85° E 11:39:28 10° N
Cosmos 1484 Rocket 3.2 11:32:53 10° NNE 11:36:52 67° E 11:40:50 10° S
ALOS 2.5 11:35:13 10° NNE 11:39:53 70° E 11:44:31 10° S
Cosmos 1536 2.7 11:40:13 10° N 11:44:17 79° W 11:48:20 10° S
Cosmos 1437 Rocket 3.4 11:43:21 10° S 11:47:02 56° E 11:50:46 10° NNE
Meteor 1-31 Rocket 2.9 11:44:35 10° NNE 11:48:26 75° ESE 11:52:16 10° S
